Location: Unspecified
(0.0000°N, 0.0000°E)
Time: 17:44:14
(UTC+00:00)

NNS O-4 - Visible Passes

Search period start: 21 May 2026 00:00
Search period end: 31 May 2026 00:00
Orbit: 1010 x 1121 km, 89.9° (Epoch: 21 May)

Date Brightness Start Highest point End Pass type
(mag) Time Alt. Az. Time Alt. Az. Time Alt. Az.
21 May 10.0 02:45:23 24° NNE 02:45:23 24° NNE 02:47:58 10° NNE visible
22 May 9.8 03:37:55 20° NNW 03:37:55 20° NNW 03:39:53 10° NNW visible
23 May 10.2 02:43:48 20° NNE 02:43:48 20° NNE 02:45:43 10° N visible
24 May 10.1 03:36:17 15° NNW 03:36:17 15° NNW 03:37:22 10° NNW visible
25 May 10.3 02:42:09 17° N 02:42:09 17° N 02:43:27 10° N visible
26 May 10.4 03:34:35 11° NNW 03:34:35 11° NNW 03:34:50 10° NNW visible
27 May 10.5 02:40:25 14° N 02:40:25 14° N 02:41:08 10° N visible
29 May 10.6 02:38:37 11° N 02:38:37 11° N 02:38:48 10° N visible
